Weather History for Daviess Cnty AP, Washington,, IN

Change the Weather History Date:

Wednesday, April 9, 2014

  Actual Average (KLWV) Record (KLWV)
Temperature  
Mean Temperature 49 °F 54 °F  
Max Temperature 61 °F 64 °F 86 °F (2001)
Min Temperature 37 °F 43 °F 24 °F (1997)
Degree Days  
Heating Degree Days 16 12  
Month to date heating degree days 120  
Since 1 July heating degree days 4417  
Cooling Degree Days 0 1  
Month to date cooling degree days 3  
Year to date cooling degree days 5  
Moisture  
Dew Point 40 °F    
Average Humidity 71    
Maximum Humidity 100    
Minimum Humidity 39    
Precipitation  
Precipitation 0.00 in 0.10 in 1.40 in (1991)
Month to date precipitation 1.00  
Year to date precipitation 8.82  
Sea Level Pressure  
Sea Level Pressure 30.02 in    
Wind  
Wind Speed 5 mph (WSW)    
Max Wind Speed 15 mph    
Max Gust Speed 20 mph    
Visibility 10 miles    
Events      
T = Trace of Precipitation, MM = Missing Value Source: NWS Daily Summary

Daily Weather History Graph

Daily Weather History Graph

Search for Another Location

Airport:

Trip Planner

Search our weather history database for the weather conditions in past years. The results will help you decide how hot, cold, wet, or windy it might be!

Date:

Astronomy

Apr. 09, 2014 Rise Set
Actual Time 7:21 AM EDT 8:19 PM EDT
Civil Twilight 6:53 AM EDT 8:46 PM EDT
Nautical Twilight 6:21 AM EDT 9:19 PM EDT
Astronomical Twilight 5:48 AM EDT 9:52 PM EDT
Moon 3:10 PM EDT (4/9) 4:06 AM EDT (4/9)
Length of Visible Light 13h 52m
Length of Day
12h 58m
Waxing Gibbous, 71% of the Moon is Illuminated
Apr 9
Waxing Gibbous
Apr 15
Full
Apr 22
Last Quarter
Apr 29
New
May 6
First Quarter

Hourly Weather History & Observations

Time (EDT) Temp. Windchill Dew Point Humidity Pressure Visibility Wind Dir Wind Speed Gust Speed Precip Events Conditions
12:15 AM 46.8 °F - 41.9 °F 83% 29.91 in 10.0 mi WNW 4.6 mph - N/A   Clear
12:35 AM 45.9 °F 42.9 °F 42.1 °F 87% 29.91 in 10.0 mi West 5.8 mph - N/A   Clear
12:55 AM 45.5 °F 42.5 °F 41.7 °F 87% 29.92 in 10.0 mi West 5.8 mph - N/A   Clear
1:15 AM 45.1 °F 42.8 °F 41.2 °F 86% 29.92 in 10.0 mi WNW 4.6 mph - N/A   Clear
1:35 AM 43.7 °F - 40.6 °F 89% 29.93 in 10.0 mi Calm Calm - N/A   Clear
1:55 AM 42.1 °F - 40.5 °F 94% 29.93 in 10.0 mi Calm Calm - N/A   Clear
2:15 AM 41.7 °F - 40.3 °F 95% 29.93 in 10.0 mi Calm Calm - N/A   Clear
2:35 AM 41.2 °F - 39.7 °F 95% 29.94 in 10.0 mi Calm Calm - N/A   Clear
2:55 AM 41.2 °F - 39.6 °F 94% 29.94 in 10.0 mi Calm Calm - N/A   Clear
3:15 AM 42.1 °F 40.2 °F 40.3 °F 93% 29.94 in 10.0 mi WSW 3.5 mph - N/A   Clear
3:35 AM 41.4 °F 39.4 °F 39.7 °F 94% 29.94 in 10.0 mi West 3.5 mph - N/A   Clear
3:55 AM 42.4 °F 40.7 °F 40.5 °F 93% 29.94 in 10.0 mi West 3.5 mph - N/A   Clear
4:15 AM 43.0 °F 41.3 °F 40.3 °F 90% 29.95 in 10.0 mi WNW 3.5 mph - N/A   Clear
4:35 AM 40.3 °F - 38.3 °F 93% 29.95 in 10.0 mi Calm Calm - N/A   Clear
4:55 AM 39.2 °F - 38.3 °F 97% 29.96 in 10.0 mi Calm Calm - N/A   Clear
5:15 AM 39.2 °F - 38.5 °F 97% 29.96 in 10.0 mi Calm Calm - N/A   Clear
5:35 AM 39.2 °F - 39.0 °F 99% 29.97 in 10.0 mi Calm Calm - N/A   Clear
5:55 AM 38.8 °F - 38.7 °F 99% 29.97 in 4.0 mi Calm Calm - N/A   Clear
6:15 AM 39.2 °F - 38.8 °F 99% 29.98 in 10.0 mi Calm Calm - N/A   Clear
6:35 AM 37.0 °F 34.5 °F 36.7 °F 99% 29.99 in 10.0 mi WNW 3.5 mph - N/A   Clear
6:55 AM 38.5 °F - 37.6 °F 97% 30.00 in 10.0 mi Calm Calm - N/A   Clear
7:15 AM 37.4 °F - 36.7 °F 97% 30.01 in 7.0 mi Calm Calm - N/A   Clear
7:35 AM 37.9 °F - 37.4 °F 98% 30.01 in 7.0 mi Calm Calm - N/A   Clear
7:55 AM 37.8 °F - 37.6 °F 99% 30.02 in 5.0 mi Calm Calm - N/A   Clear
8:15 AM 39.7 °F - 39.7 °F 100% 30.02 in 7.0 mi Calm Calm - N/A   Clear
8:35 AM 43.7 °F - 41.4 °F 91% 30.03 in 10.0 mi Calm Calm - N/A   Clear
8:55 AM 45.1 °F 42.0 °F 40.3 °F 83% 30.04 in 10.0 mi West 5.8 mph - N/A   Clear
9:15 AM 45.5 °F 43.2 °F 40.1 °F 81% 30.05 in 10.0 mi West 4.6 mph - N/A   Clear
9:35 AM 46.8 °F - 40.1 °F 78% 30.05 in 10.0 mi West 4.6 mph - N/A   Clear
9:55 AM 47.7 °F - 40.6 °F 77% 30.06 in 10.0 mi West 3.5 mph - N/A   Clear
10:15 AM 48.6 °F - 40.5 °F 74% 30.06 in 10.0 mi WNW 4.6 mph - N/A   Clear
10:35 AM 49.8 °F - 41.4 °F 73% 30.07 in 10.0 mi Calm Calm - N/A   Clear
10:55 AM 50.5 °F - 40.8 °F 69% 30.08 in 10.0 mi WNW 3.5 mph - N/A   Clear
11:15 AM 52.3 °F - 42.3 °F 69% 30.08 in 10.0 mi West 3.5 mph - N/A   Clear
11:35 AM 54.0 °F - 42.3 °F 65% 30.08 in 10.0 mi WSW 4.6 mph - N/A   Clear
11:55 AM 55.0 °F - 42.3 °F 62% 30.08 in 10.0 mi West 6.9 mph - N/A   Clear
12:15 PM 55.8 °F - 43.0 °F 62% 30.08 in 10.0 mi West 9.2 mph - N/A   Clear
12:35 PM 56.3 °F - 43.3 °F 62% 30.08 in 10.0 mi West 8.1 mph - N/A   Clear
12:55 PM 57.4 °F - 42.3 °F 57% 30.08 in 10.0 mi West 10.4 mph - N/A   Clear
1:15 PM 57.7 °F - 42.4 °F 57% 30.08 in 10.0 mi WSW 11.5 mph - N/A   Clear
1:35 PM 58.5 °F - 41.7 °F 54% 30.08 in 10.0 mi West 12.7 mph 17.3 mph N/A   Clear
1:55 PM 59.2 °F - 41.2 °F 51% 30.08 in 10.0 mi West 11.5 mph - N/A   Clear
2:15 PM 59.4 °F - 40.5 °F 50% 30.07 in 10.0 mi West 11.5 mph 17.3 mph N/A   Scattered Clouds
2:35 PM 59.9 °F - 38.1 °F 44% 30.07 in 10.0 mi WSW 8.1 mph 16.1 mph N/A   Scattered Clouds
2:55 PM 60.4 °F - 37.8 °F 43% 30.07 in 10.0 mi SW 8.1 mph - N/A   Clear
3:15 PM 60.3 °F - 37.9 °F 44% 30.06 in 10.0 mi West 13.8 mph 17.3 mph N/A   Mostly Cloudy
3:35 PM 60.6 °F - 37.4 °F 42% 30.05 in 10.0 mi West 6.9 mph 16.1 mph N/A   Mostly Cloudy
3:55 PM 61.2 °F - 39.4 °F 45% 30.05 in 10.0 mi WSW 10.4 mph - N/A   Scattered Clouds
4:15 PM 61.3 °F - 38.3 °F 43% 30.05 in 10.0 mi WSW 11.5 mph - N/A   Scattered Clouds
4:35 PM 61.2 °F - 36.1 °F 39% 30.04 in 10.0 mi West 11.5 mph - N/A   Clear
4:55 PM 61.3 °F - 37.2 °F 41% 30.04 in 10.0 mi WSW 15.0 mph 19.6 mph N/A   Clear
5:15 PM 61.3 °F - 37.4 °F 41% 30.04 in 10.0 mi WSW 10.4 mph 17.3 mph N/A   Clear
5:35 PM 61.2 °F - 37.9 °F 42% 30.04 in 10.0 mi WSW 9.2 mph - N/A   Clear
5:55 PM 61.0 °F - 37.0 °F 41% 30.04 in 10.0 mi WSW 10.4 mph - N/A   Clear
6:15 PM 61.0 °F - 37.9 °F 42% 30.04 in 10.0 mi WSW 10.4 mph - N/A   Clear
6:35 PM 60.8 °F - 37.2 °F 42% 30.04 in 10.0 mi SW 10.4 mph - N/A   Clear
6:55 PM 60.1 °F - 38.5 °F 45% 30.04 in 10.0 mi SW 10.4 mph - N/A   Clear
7:15 PM 59.7 °F - 36.9 °F 43% 30.04 in 10.0 mi SW 9.2 mph - N/A   Clear
7:35 PM 58.6 °F - 38.8 °F 48% 30.04 in 10.0 mi SW 6.9 mph - N/A   Clear
7:55 PM 57.6 °F - 38.1 °F 48% 30.04 in 10.0 mi SW 8.1 mph - N/A   Clear
8:15 PM 55.9 °F - 40.3 °F 56% 30.03 in 10.0 mi SSW 6.9 mph - N/A   Clear
8:35 PM 54.7 °F - 40.6 °F 59% 30.04 in 10.0 mi SSW 8.1 mph - N/A   Clear
8:55 PM 54.1 °F - 40.1 °F 59% 30.04 in 10.0 mi SSW 8.1 mph - N/A   Clear
9:15 PM 53.2 °F - 40.3 °F 61% 30.03 in 10.0 mi South 6.9 mph - N/A   Clear
9:35 PM 50.9 °F - 41.9 °F 71% 30.04 in 10.0 mi South 6.9 mph - N/A   Clear
9:55 PM 50.0 °F - 41.2 °F 72% 30.04 in 10.0 mi South 6.9 mph - N/A   Clear
10:15 PM 49.1 °F - 41.2 °F 74% 30.04 in 10.0 mi South 6.9 mph - N/A   Clear
10:35 PM 48.4 °F - 41.9 °F 78% 30.03 in 10.0 mi South 5.8 mph - N/A   Clear
10:55 PM 47.3 °F - 41.9 °F 82% 30.04 in 10.0 mi South 4.6 mph - N/A   Clear
11:35 PM 48.4 °F - 39.2 °F 71% 30.03 in 10.0 mi South 8.1 mph - N/A   Clear
11:55 PM 48.2 °F - 38.8 °F 70% 30.03 in 10.0 mi South 6.9 mph - N/A   Clear